sat.trackr.live / text

‹ back to catalog

STARLINK-11733 [DTC]

NORAD 64072 · 2025-107J

PAYLOAD ACTIVE UNKNOWN

§ Identity

Operator
Country
US
Launch date
2025-05-21
Launch site
AFETR
Launch vehicle
Mass (kg)
RCS (m²)

Purposes: comms

External: N2YO · Heavens-Above · Gunter

§ Orbital elements

Epoch: 2026-09-20T08:22:46.538400Z

Period
91.67 min
Inclination
42.9996°
Eccentricity
0.0004075
Mean motion
15.70828118 rev/d
Perigee alt
353.8 km
Apogee alt
359.3 km
Semi-major
6,734.7 km
B*
1.0394e-3
RAAN
4.8254°
Arg perigee
295.7328°
Mean anomaly
64.3119°
Rev number
7,791

§ Raw data

STARLINK-11733 [DTC]1 64072U 25107J   26263.34914975  .00135081  00000+0  10394-2 0  99912 64072  42.9996   4.8254 0004075 295.7328  64.3119 15.70828118 77914

JSON: /api/v1/satellites/64072 · /tle

For live sub-satellite position, see the globe view (requires WebGL).

§ Visibility from observer

Set your observer location to see the next 7 days of passes ≥ 10°. The values pass through the URL so the page stays shareable.

No JS? Fill the form by hand. The geolocation button needs JavaScript.